| time (UTC) | temp F | wind direction | speed MPH | gust MPH | rain 1hr in | rain 24hr in | rain mn in | humidity % | barometer mb |
| 20260510022347 | 80 | 176 | 0.0 | 2.0 | 0.00 | 0.25 | 0.25 | 78 | 1008.0 |
| 20260510021846 | 80 | 137 | 0.0 | 1.0 | 0.00 | 0.25 | 0.25 | 77 | 1007.7 |
| 20260510021344 | 80 | 129 | 0.0 | 0.0 | 0.00 | 0.25 | 0.25 | 77 | 1008.0 |
| 20260510020841 | 81 | 166 | 0.0 | 0.0 | 0.00 | 0.25 | 0.25 | 76 | 1007.8 |
| 20260510020341 | 81 | 152 | 0.0 | 0.0 | 0.00 | 0.25 | 0.25 | 75 | 1007.6 |
| 20260510015837 | 82 | 119 | 0.0 | 0.0 | 0.00 | 0.25 | 0.25 | 74 | 1007.5 |
| 20260510015332 | 82 | 124 | 0.0 | 0.0 | 0.00 | 0.25 | 0.25 | 74 | 1007.6 |
| 20260510014828 | 82 | 127 | 0.0 | 0.0 | 0.00 | 0.25 | 0.25 | 73 | 1007.3 |
| 20260510014326 | 82 | 125 | 0.0 | 0.0 | 0.00 | 0.25 | 0.25 | 72 | 1007.4 |
| 20260510013821 | 82 | 133 | 0.0 | 0.0 | 0.00 | 0.25 | 0.25 | 72 | 1007.5 |
| 20260510013317 | 82 | 123 | 0.0 | 0.0 | 0.00 | 0.25 | 0.25 | 71 | 1007.3 |
| 20260510012812 | 83 | 131 | 0.0 | 0.0 | 0.00 | 0.25 | 0.25 | 70 | 1007.1 |
| 20260510012312 | 83 | 117 | 0.0 | 0.0 | 0.00 | 0.25 | 0.25 | 70 | 1007.2 |
| 20260510011807 | 83 | 127 | 0.0 | 0.0 | 0.00 | 0.25 | 0.25 | 69 | 1007.2 |
| 20260510011303 | 83 | 132 | 1.0 | 2.0 | 0.00 | 0.25 | 0.25 | 69 | 1007.3 |
| 20260510010800 | 84 | 127 | 0.0 | 0.0 | 0.00 | 0.25 | 0.25 | 68 | 1007.2 |
| 20260510010256 | 84 | 129 | 0.0 | 0.0 | 0.00 | 0.25 | 0.25 | 67 | 1007.1 |
| 20260510005753 | 84 | 124 | 0.0 | 0.0 | 0.00 | 0.25 | 0.25 | 66 | 1007.1 |
| 20260510005249 | 84 | 122 | 0.0 | 0.0 | 0.00 | 0.25 | 0.25 | 65 | 1007.1 |
| 20260510004748 | 85 | 111 | 0.0 | 1.0 | 0.00 | 0.25 | 0.25 | 64 | 1006.9 |
| 20260510004245 | 85 | 162 | 1.0 | 2.0 | 0.00 | 0.25 | 0.25 | 64 | 1007.1 |
| 20260510003742 | 85 | 115 | 0.0 | 0.0 | 0.00 | 0.25 | 0.25 | 64 | 1007.0 |
| 20260510003239 | 85 | 109 | 1.0 | 1.0 | 0.00 | 0.25 | 0.25 | 63 | 1006.8 |
| 20260510002737 | 86 | 140 | 6.0 | 7.0 | 0.00 | 0.25 | 0.25 | 63 | 1007.1 |
| 20260510002235 | 86 | 142 | 0.0 | 1.0 | 0.00 | 0.25 | 0.25 | 63 | 1006.9 |
| 20260510001731 | 86 | 137 | 4.0 | 7.0 | 0.00 | 0.25 | 0.25 | 61 | 1006.8 |
| 20260510001230 | 86 | 106 | 1.0 | 1.0 | 0.00 | 0.25 | 0.25 | 61 | 1006.8 |
| 20260510000726 | 87 | 126 | 0.0 | 0.0 | 0.00 | 0.25 | 0.25 | 61 | 1006.7 |
| 20260510000223 | 87 | 95 | 0.0 | 1.0 | 0.00 | 0.25 | 0.25 | 59 | 1006.7 |
| 20260509235720 | 87 | 137 | 0.0 | 0.0 | 0.00 | 0.25 | 0.25 | 58 | 1006.7 |
| 20260509235216 | 87 | 129 | 0.0 | 0.0 | 0.00 | 0.25 | 0.25 | 56 | 1006.5 |
| 20260509234712 | 87 | 154 | 1.0 | 1.0 | 0.00 | 0.25 | 0.25 | 56 | 1006.5 |
| 20260509234209 | 87 | 107 | 0.0 | 0.0 | 0.00 | 0.25 | 0.25 | 56 | 1006.7 |
| 20260509233708 | 87 | 132 | 0.0 | 0.0 | 0.00 | 0.25 | 0.25 | 56 | 1006.3 |
| 20260509233205 | 87 | 132 | 0.0 | 1.0 | 0.00 | 0.25 | 0.25 | 55 | 1006.4 |
| 20260509232701 | 87 | 103 | 1.0 | 2.0 | 0.00 | 0.25 | 0.25 | 56 | 1006.4 |
| 20260509232157 | 87 | 112 | 0.0 | 0.0 | 0.00 | 0.25 | 0.25 | 55 | 1006.3 |
| 20260509231655 | 87 | 85 | 1.0 | 2.0 | 0.00 | 0.25 | 0.25 | 55 | 1006.4 |
| 20260509231152 | 87 | 100 | 4.0 | 5.0 | 0.00 | 0.25 | 0.25 | 53 | 1006.6 |
| 20260509230649 | 87 | 124 | 0.0 | 1.0 | 0.00 | 0.25 | 0.25 | 52 | 1006.6 |
| 20260509230146 | 87 | 114 | 0.0 | 0.0 | 0.00 | 0.25 | 0.25 | 52 | 1006.4 |
| 20260509225641 | 87 | 84 | 1.0 | 1.0 | 0.00 | 0.25 | 0.25 | 53 | 1006.5 |
| 20260509225137 | 87 | 110 | 1.0 | 2.0 | 0.00 | 0.25 | 0.25 | 52 | 1006.4 |
| 20260509224633 | 86 | 107 | 0.0 | 0.0 | 0.00 | 0.25 | 0.25 | 52 | 1006.5 |
| 20260509224130 | 86 | 118 | 0.0 | 0.0 | 0.00 | 0.25 | 0.25 | 52 | 1006.5 |
| 20260509223627 | 86 | 104 | 3.0 | 5.0 | 0.00 | 0.25 | 0.25 | 52 | 1006.6 |
| 20260509223124 | 86 | 106 | 1.0 | 2.0 | 0.00 | 0.25 | 0.25 | 51 | 1006.4 |
| 20260509222620 | 87 | 110 | 0.0 | 0.0 | 0.00 | 0.25 | 0.25 | 48 | 1006.5 |
| 20260509222116 | 87 | 123 | 0.0 | 1.0 | 0.00 | 0.25 | 0.25 | 51 | 1006.3 |
| 20260509221612 | 86 | 133 | 0.0 | 0.0 | 0.00 | 0.25 | 0.25 | 53 | 1006.3 |
| 20260509221108 | 85 | 100 | 0.0 | 1.0 | 0.00 | 0.25 | 0.25 | 52 | 1006.6 |
| 20260509220604 | 86 | 105 | 0.0 | 0.0 | 0.00 | 0.25 | 0.25 | 52 | 1006.4 |
| 20260509215556 | 85 | 148 | 0.0 | 0.0 | 0.00 | 0.25 | 0.25 | 56 | 1006.5 |
| 20260509215054 | 86 | 197 | 5.0 | 7.0 | 0.00 | 0.25 | 0.25 | 56 | 1006.5 |
| 20260509214551 | 85 | 159 | 1.0 | 2.0 | 0.00 | 0.25 | 0.25 | 57 | 1006.6 |
| 20260509214047 | 84 | 124 | 1.0 | 2.0 | 0.00 | 0.25 | 0.25 | 61 | 1006.6 |
| 20260509213543 | 84 | 148 | 2.0 | 3.0 | 0.00 | 0.25 | 0.25 | 65 | 1006.8 |
| 20260509213041 | 85 | 141 | 1.0 | 2.0 | 0.00 | 0.25 | 0.25 | 66 | 1006.6 |
| 20260509212537 | 84 | 177 | 1.0 | 2.0 | 0.00 | 0.25 | 0.25 | 65 | 1006.7 |
| 20260509212035 | 85 | 119 | 2.0 | 3.0 | 0.00 | 0.25 | 0.25 | 64 | 1007.0 |
| 20260509211530 | 85 | 131 | 0.0 | 0.0 | 0.00 | 0.25 | 0.25 | 63 | 1007.1 |
| 20260509211027 | 85 | 139 | 0.0 | 1.0 | 0.00 | 0.25 | 0.25 | 62 | 1007.1 |
| 20260509210524 | 86 | 186 | 2.0 | 2.0 | 0.00 | 0.25 | 0.25 | 61 | 1007.0 |
| 20260509210020 | 87 | 164 | 3.0 | 6.0 | 0.00 | 0.25 | 0.25 | 55 | 1007.1 |
| 20260509205515 | 86 | 119 | 0.0 | 0.0 | 0.00 | 0.25 | 0.25 | 47 | 1007.4 |
| 20260509205010 | 86 | 132 | 0.0 | 0.0 | 0.00 | 0.25 | 0.25 | 51 | 1007.0 |
| 20260509204507 | 86 | 133 | 2.0 | 3.0 | 0.00 | 0.25 | 0.25 | 51 | 1007.1 |
| 20260509204003 | 85 | 111 | 2.0 | 2.0 | 0.00 | 0.25 | 0.25 | 48 | 1007.1 |
| 20260509203459 | 85 | 132 | 0.0 | 1.0 | 0.00 | 0.25 | 0.25 | 49 | 1007.2 |
| 20260509202957 | 85 | 108 | 0.0 | 0.0 | 0.00 | 0.25 | 0.25 | 49 | 1007.2 |
| 20260509202453 | 83 | 117 | 0.0 | 0.0 | 0.00 | 0.25 | 0.25 | 58 | 1007.3 |
| 20260509201948 | 82 | 91 | 0.0 | 1.0 | 0.00 | 0.25 | 0.25 | 58 | 1007.2 |
| 20260509201443 | 82 | 151 | 0.0 | 1.0 | 0.00 | 0.25 | 0.25 | 64 | 1007.4 |
| 20260509200940 | 80 | 133 | 0.0 | 0.0 | 0.00 | 0.25 | 0.25 | 68 | 1007.4 |
| 20260509200440 | 78 | 87 | 3.0 | 5.0 | 0.00 | 0.25 | 0.25 | 70 | 1008.1 |
| 20260509195937 | 77 | 80 | 4.0 | 5.0 | 0.00 | 0.25 | 0.25 | 69 | 1008.2 |
| 20260509195427 | 75 | 108 | 6.0 | 9.0 | 0.00 | 0.25 | 0.25 | 67 | 1008.4 |
| 20260509194926 | 73 | 83 | 7.0 | 9.0 | 0.00 | 0.25 | 0.25 | 73 | 1008.6 |
| 20260509194422 | 72 | 81 | 5.0 | 8.0 | 0.00 | 0.25 | 0.25 | 78 | 1008.5 |
| 20260509193920 | 70 | 112 | 8.0 | 9.0 | 0.19 | 0.25 | 0.25 | 79 | 1008.3 |
| 20260509193419 | 68 | 109 | 9.0 | 13.0 | 0.54 | 0.25 | 0.25 | 86 | 1008.4 |
| 20260509192916 | 68 | 107 | 10.0 | 13.0 | 0.90 | 0.23 | 0.23 | 85 | 1008.3 |
| 20260509192412 | 68 | 80 | 9.0 | 15.0 | 0.97 | 0.17 | 0.17 | 87 | 1008.3 |
| 20260509191907 | 75 | 51 | 6.0 | 9.0 | 0.35 | 0.06 | 0.06 | 84 | 1007.8 |
| 20260509191403 | 82 | 64 | 6.0 | 7.0 | 0.00 | 0.00 | 0.00 | 84 | 1008.0 |
| 20260509190859 | 84 | 93 | 3.0 | 6.0 | 0.00 | 0.00 | 0.00 | 79 | 1007.8 |
| 20260509190356 | 86 | 120 | 3.0 | 5.0 | 0.00 | 0.00 | 0.00 | 74 | 1007.8 |
| 20260509185854 | 87 | 161 | 3.0 | 3.0 | 0.00 | 0.00 | 0.00 | 66 | 1007.7 |
| 20260509185350 | 87 | 125 | 1.0 | 2.0 | 0.00 | 0.00 | 0.00 | 65 | 1008.0 |
| 20260509184847 | 87 | 173 | 3.0 | 5.0 | 0.00 | 0.00 | 0.00 | 64 | 1007.8 |
| 20260509184344 | 88 | 173 | 7.0 | 9.0 | 0.00 | 0.00 | 0.00 | 63 | 1008.3 |
| 20260509183841 | 89 | 207 | 3.0 | 6.0 | 0.00 | 0.00 | 0.00 | 61 | 1007.8 |
| 20260509183336 | 88 | 141 | 2.0 | 3.0 | 0.00 | 0.00 | 0.00 | 65 | 1008.4 |
| 20260509182832 | 87 | 151 | 2.0 | 3.0 | 0.00 | 0.00 | 0.00 | 66 | 1008.3 |
| 20260509182330 | 88 | 175 | 3.0 | 3.0 | 0.00 | 0.00 | 0.00 | 64 | 1008.6 |
| 20260509181827 | 89 | 145 | 1.0 | 1.0 | 0.00 | 0.00 | 0.00 | 65 | 1008.7 |
| 20260509181324 | 88 | 116 | 0.0 | 0.0 | 0.00 | 0.00 | 0.00 | 66 | 1008.7 |
| 20260509180821 | 87 | 93 | 0.0 | 0.0 | 0.00 | 0.00 | 0.00 | 68 | 1008.8 |
| 20260509180317 | 88 | 157 | 0.0 | 1.0 | 0.00 | 0.00 | 0.00 | 67 | 1008.7 |
| 20260509175814 | 89 | 151 | 2.0 | 2.0 | 0.00 | 0.00 | 0.00 | 66 | 1008.8 |
| 20260509175311 | 89 | 161 | 2.0 | 2.0 | 0.00 | 0.00 | 0.00 | 67 | 1008.8 |
| 20260509174806 | 87 | 161 | 1.0 | 2.0 | 0.00 | 0.00 | 0.00 | 70 | 1008.7 |
| 20260509174302 | 86 | 196 | 5.0 | 7.0 | 0.00 | 0.00 | 0.00 | 71 | 1009.0 |
| 20260509173758 | 87 | 169 | 0.0 | 1.0 | 0.00 | 0.00 | 0.00 | 71 | 1009.1 |
| 20260509173254 | 87 | 111 | 0.0 | 0.0 | 0.00 | 0.00 | 0.00 | 71 | 1009.4 |
| 20260509172750 | 87 | 143 | 1.0 | 3.0 | 0.00 | 0.00 | 0.00 | 70 | 1009.3 |
| 20260509172247 | 87 | 86 | 1.0 | 2.0 | 0.00 | 0.00 | 0.00 | 70 | 1009.3 |
| 20260509171742 | 86 | 125 | 0.0 | 0.0 | 0.00 | 0.00 | 0.00 | 71 | 1009.4 |
| 20260509171239 | 86 | 199 | 3.0 | 3.0 | 0.00 | 0.00 | 0.00 | 71 | 1009.3 |
| 20260509170736 | 86 | 140 | 1.0 | 2.0 | 0.00 | 0.00 | 0.00 | 72 | 1009.3 |
| 20260509170232 | 84 | 171 | 0.0 | 0.0 | 0.00 | 0.00 | 0.00 | 75 | 1009.2 |
| 20260509165730 | 84 | 128 | 3.0 | 3.0 | 0.00 | 0.00 | 0.00 | 76 | 1009.1 |
| 20260509165225 | 85 | 203 | 2.0 | 5.0 | 0.00 | 0.00 | 0.00 | 74 | 1009.2 |
| 20260509164722 | 84 | 204 | 3.0 | 6.0 | 0.00 | 0.00 | 0.00 | 75 | 1009.2 |
| 20260509164217 | 84 | 180 | 5.0 | 6.0 | 0.00 | 0.00 | 0.00 | 76 | 1009.3 |
| 20260509163715 | 84 | 173 | 4.0 | 5.0 | 0.00 | 0.00 | 0.00 | 77 | 1009.4 |
| 20260509163212 | 84 | 188 | 4.0 | 5.0 | 0.00 | 0.00 | 0.00 | 76 | 1009.3 |
| 20260509162709 | 83 | 192 | 5.0 | 6.0 | 0.00 | 0.00 | 0.00 | 78 | 1009.3 |
| 20260509162204 | 84 | 160 | 3.0 | 7.0 | 0.00 | 0.00 | 0.00 | 75 | 1009.3 |
| 20260509161700 | 83 | 153 | 3.0 | 6.0 | 0.00 | 0.00 | 0.00 | 78 | 1009.3 |
| 20260509161156 | 82 | 146 | 0.0 | 0.0 | 0.00 | 0.00 | 0.00 | 79 | 1009.4 |
| 20260509160652 | 83 | 107 | 1.0 | 3.0 | 0.00 | 0.00 | 0.00 | 79 | 1009.4 |
| 20260509160148 | 82 | 143 | 2.0 | 3.0 | 0.00 | 0.00 | 0.00 | 79 | 1009.4 |
| 20260509155644 | 81 | 159 | 5.0 | 9.0 | 0.00 | 0.00 | 0.00 | 82 | 1009.3 |
| 20260509155140 | 82 | 151 | 0.0 | 1.0 | 0.00 | 0.00 | 0.00 | 82 | 1009.6 |
| 20260509154636 | 80 | 229 | 1.0 | 3.0 | 0.00 | 0.00 | 0.00 | 84 | 1009.4 |
| 20260509154133 | 80 | 160 | 0.0 | 1.0 | 0.00 | 0.00 | 0.00 | 85 | 1009.3 |
| 20260509153630 | 79 | 204 | 5.0 | 6.0 | 0.00 | 0.00 | 0.00 | 87 | 1009.2 |
| 20260509153127 | 78 | 165 | 3.0 | 6.0 | 0.00 | 0.00 | 0.00 | 88 | 1009.3 |
| 20260509152622 | 78 | 160 | 2.0 | 3.0 | 0.00 | 0.00 | 0.00 | 90 | 1009.3 |
| 20260509152120 | 78 | 176 | 3.0 | 3.0 | 0.00 | 0.00 | 0.00 | 90 | 1009.5 |
| 20260509151616 | 78 | 187 | 7.0 | 8.0 | 0.00 | 0.00 | 0.00 | 89 | 1009.2 |
| 20260509151114 | 78 | 166 | 5.0 | 8.0 | 0.00 | 0.00 | 0.00 | 90 | 1009.2 |
| 20260509150611 | 77 | 135 | 0.0 | 1.0 | 0.00 | 0.00 | 0.00 | 91 | 1009.0 |
| 20260509150110 | 76 | 160 | 1.0 | 3.0 | 0.00 | 0.00 | 0.00 | 93 | 1009.1 |
| 20260509145605 | 76 | 160 | 7.0 | 8.0 | 0.00 | 0.00 | 0.00 | 94 | 1009.0 |
| 20260509145101 | 75 | 167 | 4.0 | 5.0 | 0.00 | 0.00 | 0.00 | 95 | 1009.1 |
| 20260509144558 | 75 | 166 | 5.0 | 7.0 | 0.00 | 0.00 | 0.00 | 95 | 1009.0 |
| 20260509144055 | 75 | 126 | 0.0 | 0.0 | 0.00 | 0.00 | 0.00 | 96 | 1009.1 |
| 20260509143552 | 75 | 154 | 1.0 | 2.0 | 0.00 | 0.00 | 0.00 | 96 | 1009.3 |
| 20260509143049 | 75 | 143 | 5.0 | 7.0 | 0.00 | 0.00 | 0.00 | 96 | 1009.1 |
| 20260509142545 | 75 | 204 | 5.0 | 6.0 | 0.00 | 0.00 | 0.00 | 97 | 1008.6 |
| 20260509142041 | 75 | 179 | 3.0 | 3.0 | 0.00 | 0.00 | 0.00 | 97 | 1008.8 |
| 20260509141537 | 75 | 159 | 0.0 | 0.0 | 0.00 | 0.00 | 0.00 | 97 | 1008.9 |
| 20260509141034 | 74 | 189 | 2.0 | 2.0 | 0.00 | 0.00 | 0.00 | 98 | 1008.8 |
| 20260509140531 | 74 | 206 | 2.0 | 7.0 | 0.00 | 0.00 | 0.00 | 98 | 1008.4 |
| 20260509140029 | 74 | 148 | 2.0 | 5.0 | 0.00 | 0.00 | 0.00 | 98 | 1008.6 |
| 20260509135525 | 74 | 179 | 1.0 | 1.0 | 0.00 | 0.00 | 0.00 | 99 | 1008.4 |
| 20260509135023 | 73 | 171 | 3.0 | 5.0 | 0.00 | 0.00 | 0.00 | 99 | 1008.7 |
| 20260509134520 | 74 | 144 | 1.0 | 2.0 | 0.00 | 0.00 | 0.00 | 99 | 1008.7 |
| 20260509134018 | 74 | 139 | 0.0 | 0.0 | 0.00 | 0.00 | 0.00 | 99 | 1008.8 |
| 20260509133514 | 74 | 134 | 0.0 | 0.0 | 0.00 | 0.00 | 0.00 | 99 | 1008.9 |
| 20260509133012 | 73 | 139 | 0.0 | 0.0 | 0.00 | 0.00 | 0.00 | 99 | 1008.9 |
| 20260509132510 | 73 | 130 | 0.0 | 0.0 | 0.00 | 0.00 | 0.00 | 99 | 1009.1 |
| 20260509132008 | 73 | 163 | 0.0 | 0.0 | 0.00 | 0.00 | 0.00 | 99 | 1009.3 |
| 20260509131504 | 73 | 216 | 0.0 | 1.0 | 0.00 | 0.00 | 0.00 | 99 | 1009.3 |
| 20260509131001 | 73 | 150 | 0.0 | 0.0 | 0.00 | 0.00 | 0.00 | 99 | 1009.2 |
| 20260509130456 | 73 | 145 | 0.0 | 0.0 | 0.00 | 0.00 | 0.00 | 99 | 1009.4 |
| 20260509125954 | 73 | 140 | 0.0 | 0.0 | 0.00 | 0.00 | 0.00 | 99 | 1009.2 |
| 20260509125450 | 73 | 120 | 0.0 | 0.0 | 0.00 | 0.00 | 0.00 | 99 | 1009.0 |
| 20260509124946 | 72 | 121 | 0.0 | 0.0 | 0.00 | 0.00 | 0.00 | 99 | 1009.0 |
| 20260509124443 | 72 | 115 | 0.0 | 0.0 | 0.00 | 0.00 | 0.00 | 99 | 1009.2 |
| 20260509123940 | 72 | 108 | 0.0 | 0.0 | 0.00 | 0.00 | 0.00 | 99 | 1008.7 |
| 20260509123438 | 72 | 135 | 0.0 | 0.0 | 0.00 | 0.00 | 0.00 | 99 | 1008.6 |
| 20260509122933 | 72 | 133 | 0.0 | 0.0 | 0.00 | 0.00 | 0.00 | 99 | 1008.5 |
| 20260509122431 | 72 | 156 | 0.0 | 0.0 | 0.00 | 0.00 | 0.00 | 99 | 1008.7 |
| 20260509121927 | 72 | 146 | 0.0 | 0.0 | 0.00 | 0.00 | 0.00 | 99 | 1009.1 |
| 20260509121424 | 72 | 112 | 0.0 | 0.0 | 0.00 | 0.00 | 0.00 | 99 | 1008.8 |
| 20260509120923 | 72 | 108 | 0.0 | 0.0 | 0.00 | 0.00 | 0.00 | 99 | 1008.6 |
| 20260509120420 | 72 | 134 | 0.0 | 0.0 | 0.00 | 0.00 | 0.00 | 99 | 1008.8 |
| 20260509115918 | 72 | 153 | 0.0 | 0.0 | 0.00 | 0.00 | 0.00 | 99 | 1008.8 |
| 20260509115415 | 72 | 94 | 0.0 | 0.0 | 0.00 | 0.00 | 0.00 | 99 | 1009.0 |
| 20260509114913 | 72 | 78 | 1.0 | 3.0 | 0.00 | 0.00 | 0.00 | 99 | 1008.8 |
| 20260509114411 | 72 | 117 | 0.0 | 0.0 | 0.00 | 0.00 | 0.00 | 99 | 1009.2 |
| 20260509113910 | 72 | 107 | 0.0 | 0.0 | 0.00 | 0.00 | 0.00 | 99 | 1009.0 |
| 20260509113407 | 72 | 74 | 0.0 | 0.0 | 0.00 | 0.00 | 0.00 | 99 | 1009.2 |
| 20260509112903 | 72 | 340 | 1.0 | 2.0 | 0.00 | 0.00 | 0.00 | 99 | 1009.6 |
| 20260509112400 | 73 | 90 | 0.0 | 0.0 | 0.00 | 0.00 | 0.00 | 99 | 1009.8 |
| 20260509111858 | 73 | 112 | 0.0 | 0.0 | 0.00 | 0.00 | 0.00 | 99 | 1009.6 |
| 20260509111354 | 73 | 127 | 0.0 | 0.0 | 0.00 | 0.00 | 0.00 | 99 | 1009.9 |
| 20260509110852 | 73 | 129 | 0.0 | 0.0 | 0.00 | 0.00 | 0.00 | 99 | 1009.8 |
| 20260509110348 | 73 | 111 | 0.0 | 0.0 | 0.00 | 0.00 | 0.00 | 99 | 1009.5 |
| 20260509105847 | 73 | 115 | 0.0 | 0.0 | 0.00 | 0.00 | 0.00 | 99 | 1009.7 |
| 20260509105345 | 73 | 95 | 0.0 | 0.0 | 0.00 | 0.00 | 0.00 | 99 | 1009.8 |
| 20260509104841 | 73 | 94 | 0.0 | 0.0 | 0.00 | 0.00 | 0.00 | 99 | 1009.8 |
| 20260509104337 | 73 | 100 | 0.0 | 0.0 | 0.00 | 0.00 | 0.00 | 99 | 1009.9 |
| 20260509103835 | 72 | 129 | 0.0 | 0.0 | 0.00 | 0.00 | 0.00 | 99 | 1009.7 |
| 20260509103332 | 73 | 131 | 0.0 | 0.0 | 0.00 | 0.00 | 0.00 | 99 | 1010.0 |
| 20260509102831 | 73 | 118 | 0.0 | 0.0 | 0.00 | 0.00 | 0.00 | 99 | 1009.9 |
| 20260509102328 | 73 | 105 | 0.0 | 0.0 | 0.00 | 0.00 | 0.00 | 99 | 1009.9 |
| 20260509101824 | 73 | 44 | 1.0 | 2.0 | 0.00 | 0.00 | 0.00 | 99 | 1009.7 |
| 20260509101320 | 73 | 103 | 0.0 | 0.0 | 0.00 | 0.00 | 0.00 | 99 | 1009.8 |
| 20260509100818 | 73 | 90 | 0.0 | 0.0 | 0.00 | 0.00 | 0.00 | 99 | 1009.4 |
| 20260509100315 | 73 | 104 | 0.0 | 0.0 | 0.00 | 0.00 | 0.00 | 99 | 1009.2 |
| 20260509095811 | 72 | 103 | 0.0 | 0.0 | 0.00 | 0.00 | 0.00 | 99 | 1009.1 |
| 20260509095309 | 72 | 121 | 0.0 | 0.0 | 0.00 | 0.00 | 0.00 | 99 | 1008.6 |
| 20260509094806 | 72 | 123 | 0.0 | 0.0 | 0.00 | 0.00 | 0.00 | 99 | 1008.5 |
| 20260509094302 | 72 | 117 | 0.0 | 0.0 | 0.00 | 0.00 | 0.00 | 99 | 1008.2 |
| 20260509093800 | 72 | 116 | 0.0 | 0.0 | 0.00 | 0.00 | 0.00 | 99 | 1008.8 |
| 20260509093257 | 72 | 121 | 0.0 | 0.0 | 0.00 | 0.00 | 0.00 | 99 | 1008.6 |
| 20260509092755 | 72 | 124 | 0.0 | 0.0 | 0.00 | 0.00 | 0.00 | 99 | 1008.5 |
| 20260509092253 | 72 | 116 | 0.0 | 0.0 | 0.00 | 0.00 | 0.00 | 99 | 1008.4 |
| 20260509091751 | 72 | 117 | 0.0 | 0.0 | 0.00 | 0.00 | 0.00 | 99 | 1008.3 |
| 20260509091247 | 72 | 101 | 0.0 | 0.0 | 0.00 | 0.00 | 0.00 | 99 | 1008.4 |
| 20260509090745 | 72 | 107 | 0.0 | 0.0 | 0.00 | 0.00 | 0.00 | 99 | 1008.5 |
| 20260509090242 | 72 | 69 | 0.0 | 0.0 | 0.00 | 0.00 | 0.00 | 99 | 1008.6 |
| 20260509085739 | 72 | 103 | 0.0 | 0.0 | 0.00 | 0.00 | 0.00 | 99 | 1008.7 |
| 20260509085237 | 72 | 103 | 0.0 | 0.0 | 0.00 | 0.00 | 0.00 | 98 | 1008.7 |
| 20260509084733 | 72 | 104 | 0.0 | 0.0 | 0.00 | 0.00 | 0.00 | 98 | 1008.5 |
| 20260509084230 | 72 | 104 | 0.0 | 0.0 | 0.00 | 0.00 | 0.00 | 98 | 1008.6 |
| 20260509083728 | 72 | 98 | 0.0 | 0.0 | 0.00 | 0.00 | 0.00 | 98 | 1008.7 |
| 20260509083224 | 73 | 103 | 0.0 | 0.0 | 0.00 | 0.00 | 0.00 | 98 | 1008.8 |
| 20260509082721 | 72 | 110 | 0.0 | 0.0 | 0.00 | 0.00 | 0.00 | 98 | 1008.9 |
| 20260509082218 | 72 | 121 | 0.0 | 0.0 | 0.00 | 0.00 | 0.00 | 98 | 1009.1 |
| 20260509081714 | 72 | 119 | 0.0 | 0.0 | 0.00 | 0.00 | 0.00 | 98 | 1009.2 |
| 20260509081212 | 72 | 113 | 0.0 | 0.0 | 0.00 | 0.00 | 0.00 | 98 | 1008.8 |
| 20260509080710 | 72 | 111 | 0.0 | 0.0 | 0.00 | 0.00 | 0.00 | 98 | 1008.8 |
| 20260509080208 | 72 | 102 | 0.0 | 0.0 | 0.00 | 0.00 | 0.00 | 98 | 1008.8 |
| 20260509075706 | 72 | 110 | 0.0 | 0.0 | 0.00 | 0.00 | 0.00 | 98 | 1009.2 |
| 20260509075203 | 72 | 117 | 0.0 | 0.0 | 0.00 | 0.00 | 0.00 | 98 | 1009.1 |
| 20260509074700 | 72 | 98 | 0.0 | 0.0 | 0.00 | 0.00 | 0.00 | 98 | 1009.0 |
| 20260509074156 | 72 | 115 | 0.0 | 0.0 | 0.00 | 0.00 | 0.00 | 98 | 1009.0 |
| 20260509073653 | 72 | 106 | 0.0 | 0.0 | 0.00 | 0.00 | 0.00 | 98 | 1009.1 |
| 20260509073149 | 72 | 109 | 0.0 | 0.0 | 0.00 | 0.00 | 0.00 | 97 | 1009.1 |
| 20260509072646 | 72 | 100 | 0.0 | 0.0 | 0.00 | 0.00 | 0.00 | 97 | 1008.9 |
| 20260509072143 | 72 | 111 | 0.0 | 0.0 | 0.00 | 0.00 | 0.00 | 97 | 1009.3 |
| 20260509071640 | 72 | 121 | 0.0 | 0.0 | 0.00 | 0.00 | 0.00 | 97 | 1009.2 |
| 20260509071137 | 72 | 125 | 0.0 | 0.0 | 0.00 | 0.00 | 0.00 | 97 | 1009.3 |
| 20260509070634 | 72 | 134 | 0.0 | 0.0 | 0.00 | 0.00 | 0.00 | 97 | 1009.4 |
| 20260509070130 | 72 | 134 | 0.0 | 0.0 | 0.00 | 0.00 | 0.00 | 97 | 1009.2 |
| 20260509065626 | 72 | 161 | 0.0 | 0.0 | 0.00 | 0.00 | 0.00 | 97 | 1009.4 |
| 20260509065123 | 72 | 127 | 0.0 | 0.0 | 0.00 | 0.00 | 0.00 | 97 | 1008.9 |
| 20260509064620 | 72 | 139 | 0.0 | 0.0 | 0.00 | 0.00 | 0.00 | 97 | 1008.8 |
| 20260509064118 | 72 | 116 | 0.0 | 0.0 | 0.00 | 0.00 | 0.00 | 97 | 1009.0 |
| 20260509063614 | 72 | 134 | 0.0 | 0.0 | 0.00 | 0.00 | 0.00 | 97 | 1008.7 |
| 20260509063111 | 72 | 169 | 1.0 | 1.0 | 0.00 | 0.00 | 0.00 | 96 | 1009.1 |
| 20260509062608 | 72 | 133 | 0.0 | 0.0 | 0.00 | 0.00 | 0.00 | 96 | 1009.2 |
| 20260509062105 | 72 | 187 | 5.0 | 6.0 | 0.00 | 0.00 | 0.00 | 96 | 1009.1 |
| 20260509061602 | 73 | 154 | 3.0 | 5.0 | 0.00 | 0.00 | 0.00 | 96 | 1008.8 |
| 20260509061059 | 73 | 154 | 2.0 | 5.0 | 0.00 | 0.00 | 0.00 | 95 | 1008.9 |
| 20260509060557 | 73 | 146 | 1.0 | 2.0 | 0.00 | 0.00 | 0.00 | 95 | 1008.6 |
| 20260509060052 | 73 | 194 | 4.0 | 6.0 | 0.00 | 0.00 | 0.00 | 95 | 1008.5 |
| 20260509055548 | 73 | 210 | 5.0 | 7.0 | 0.00 | 0.00 | 0.00 | 94 | 1008.6 |
| 20260509055044 | 73 | 154 | 5.0 | 6.0 | 0.00 | 0.00 | 0.00 | 94 | 1008.7 |
| 20260509054541 | 73 | 184 | 5.0 | 6.0 | 0.00 | 0.00 | 0.00 | 94 | 1008.6 |
| 20260509054039 | 74 | 194 | 7.0 | 9.0 | 0.00 | 0.00 | 0.00 | 93 | 1008.8 |
| 20260509053537 | 74 | 200 | 5.0 | 7.0 | 0.00 | 0.00 | 0.00 | 93 | 1008.6 |
| 20260509053034 | 74 | 213 | 4.0 | 6.0 | 0.00 | 0.00 | 0.00 | 93 | 1008.4 |
| 20260509052531 | 74 | 194 | 4.0 | 6.0 | 0.00 | 0.00 | 0.00 | 93 | 1008.1 |
| 20260509052029 | 74 | 166 | 5.0 | 8.0 | 0.00 | 0.00 | 0.00 | 93 | 1008.0 |
| 20260509051527 | 74 | 161 | 5.0 | 6.0 | 0.00 | 0.00 | 0.00 | 93 | 1008.1 |
| 20260509051024 | 74 | 185 | 2.0 | 3.0 | 0.00 | 0.00 | 0.00 | 92 | 1008.3 |
| 20260509050521 | 74 | 160 | 3.0 | 3.0 | 0.00 | 0.00 | 0.00 | 92 | 1008.1 |
| 20260509050017 | 74 | 157 | 4.0 | 6.0 | 0.00 | 0.00 | 0.00 | 92 | 1008.0 |
| 20260509045514 | 74 | 155 | 3.0 | 3.0 | 0.00 | 0.00 | 0.00 | 92 | 1008.0 |
| 20260509045012 | 74 | 128 | 1.0 | 1.0 | 0.00 | 0.00 | 0.00 | 92 | 1008.3 |
| 20260509044509 | 74 | 125 | 3.0 | 3.0 | 0.00 | 0.00 | 0.00 | 91 | 1008.2 |
| 20260509044006 | 74 | 106 | 1.0 | 2.0 | 0.00 | 0.00 | 0.00 | 91 | 1008.2 |
| 20260509043502 | 75 | 119 | 2.0 | 3.0 | 0.00 | 0.00 | 0.00 | 91 | 1008.2 |
| 20260509042957 | 75 | 154 | 4.0 | 5.0 | 0.00 | 0.00 | 0.00 | 90 | 1008.4 |
| 20260509042455 | 75 | 177 | 1.0 | 3.0 | 0.00 | 0.00 | 0.00 | 90 | 1008.5 |
| 20260509041950 | 75 | 151 | 3.0 | 5.0 | 0.00 | 0.00 | 0.00 | 90 | 1008.6 |
| 20260509041447 | 75 | 151 | 2.0 | 2.0 | 0.00 | 0.00 | 0.00 | 90 | 1008.6 |
| 20260509040946 | 75 | 165 | 5.0 | 6.0 | 0.00 | 0.00 | 0.00 | 90 | 1008.5 |
| 20260509040444 | 75 | 165 | 3.0 | 3.0 | 0.00 | 0.00 | 0.00 | 90 | 1008.6 |
| 20260509035940 | 75 | 163 | 5.0 | 6.0 | 0.00 | 0.00 | 0.00 | 90 | 1008.6 |
| 20260509035437 | 75 | 144 | 3.0 | 5.0 | 0.00 | 0.00 | 0.00 | 89 | 1008.4 |
| 20260509034933 | 75 | 181 | 2.0 | 3.0 | 0.00 | 0.00 | 0.00 | 89 | 1008.5 |
| 20260509034431 | 75 | 184 | 3.0 | 3.0 | 0.00 | 0.00 | 0.00 | 89 | 1008.3 |
| 20260509033928 | 75 | 144 | 2.0 | 3.0 | 0.00 | 0.00 | 0.00 | 89 | 1008.4 |
| 20260509033425 | 75 | 146 | 1.0 | 2.0 | 0.00 | 0.00 | 0.00 | 89 | 1008.4 |
| 20260509032921 | 75 | 148 | 2.0 | 2.0 | 0.00 | 0.00 | 0.00 | 89 | 1008.4 |
| 20260509032419 | 75 | 168 | 3.0 | 3.0 | 0.00 | 0.00 | 0.00 | 89 | 1008.4 |
| 20260509031917 | 75 | 144 | 1.0 | 2.0 | 0.00 | 0.00 | 0.00 | 89 | 1008.2 |
| 20260509031414 | 75 | 137 | 1.0 | 2.0 | 0.00 | 0.00 | 0.00 | 89 | 1008.3 |
| 20260509030911 | 75 | 145 | 1.0 | 2.0 | 0.00 | 0.00 | 0.00 | 89 | 1008.7 |
| 20260509030409 | 75 | 145 | 1.0 | 1.0 | 0.00 | 0.00 | 0.00 | 89 | 1008.4 |
| 20260509025906 | 75 | 149 | 2.0 | 2.0 | 0.00 | 0.00 | 0.00 | 88 | 1008.2 |
| 20260509025402 | 75 | 106 | 0.0 | 0.0 | 0.00 | 0.00 | 0.00 | 88 | 1008.0 |
| 20260509024857 | 75 | 130 | 0.0 | 0.0 | 0.00 | 0.00 | 0.00 | 88 | 1008.0 |
| 20260509024353 | 75 | 118 | 1.0 | 2.0 | 0.00 | 0.00 | 0.00 | 88 | 1008.0 |
| 20260509023850 | 75 | 162 | 4.0 | 5.0 | 0.00 | 0.00 | 0.00 | 87 | 1008.0 |
| 20260509023348 | 75 | 156 | 3.0 | 3.0 | 0.00 | 0.00 | 0.00 | 87 | 1008.1 |
| 20260509022844 | 75 | 153 | 0.0 | 1.0 | 0.00 | 0.00 | 0.00 | 87 | 1007.8 |